Regional Weather Roundup
Issued by NWS

Home | Current Version | Previous Version | Graphics & Text | Print | Product List | Glossary On
Versions: 1 2 3 4 5 6 7 8 9 10 11 12 13 14 15 16 17 18 19 20 21 22 23 24 25 26 27 28 29 30 31 32 33 34 35 36 37 38 39 40 41 42 43 44 45 46 47 48 49 50
000
ASUS43 KFSD 170302
RWRSD

WEATHER ROUNDUP FOR SOUTH DAKOTA
NATIONAL WEATHER SERVICE SIOUX FALLS SD
900 PM CST MON JAN 16 2017

NOTE: "FAIR" INDICATES FEW OR NO CLOUDS BELOW 12,000 FEET WITH NO
SIGNIFICANT WEATHER AND/OR OBSTRUCTIONS TO VISIBILITY.


SDZ001>005-009-010-012>017-170400-
NORTHWEST AND NORTH CENTRAL SOUTH DAKOTA

CITY           SKY/WX    TMP DP  RH WIND       PRES   REMARKS
BUFFALO          N/A     18  10  71 W9        29.99F WCI   7
FAITH            N/A     15  11  83 NW15      30.06F WCI   0
MOBRIDGE       CLOUDY     9   4  80 NE3       30.03F
$$

SDZ012>016-024>037-041>051-057-063-072>074-170400-
SOUTHWEST AND SOUTH CENTRAL SOUTH DAKOTA

CITY           SKY/WX    TMP DP  RH WIND       PRES   REMARKS
RAPID CTY ARPT CLEAR     25  13  60 N14       30.07F WCI  13
PIERRE         CLOUDY    14  10  84 W5        30.06F WCI   6
CUSTER         CLOUDY    26   8  46 NW6       30.03F WCI  19
ELLSWORTH AFB  CLEAR     27  13  55 NW10      30.05F WCI  17
PHILIP         CLOUDY    16  12  84 VRB3      30.09F
PINE RIDGE     CLOUDY    10   7  87 CALM      30.09F
SPEARFISH      FAIR      23  10  58 W9        30.06F WCI  13
WINNER         FAIR      20  13  74 NW14      30.06F WCI   7
$$

SDZ004>011-016>023-039-040-170400-
NORTHEAST SOUTH DAKOTA

CITY           SKY/WX    TMP DP  RH WIND       PRES   REMARKS
ABERDEEN       CLOUDY     3   1  91 NW3       30.05F
WATERTOWN      CLOUDY    10   8  92 N3        29.99S FOG
BROOKINGS      CLOUDY    15  13  91 N3        29.97F
SISSETON         N/A     11   8  88 N6        30.02F WCI   1
$$

SDZ017-020-022-023-036>040-048>070-170400-
SOUTHEAST SOUTH DAKOTA

CITY           SKY/WX    TMP DP  RH WIND       PRES   REMARKS
SIOUX FALLS    CLOUDY    31  28  89 N9        29.97F WCI  23
HURON          CLOUDY     6   3  87 NW6       30.05S WCI  -4
CHAMBERLAIN    CLOUDY    15  12  88 W5        30.07S WCI   7
MITCHELL       CLOUDY    14  10  84 NW8       30.06S WCI   3
YANKTON        CLOUDY    25  19  80 CALM      30.01R
$$

ABBREVIATIONS USED IN REMARKS
   TC - TEMPERATURE IN CELSIUS
  WCI - WIND CHILL INDEX
   HX - HEAT INDEX
  VSB - VISIBILITY





USA.gov is the U.S. government's official web portal to all federal, state and local government web resources and services.